www.pogodaiklimat.ru

Погода и климат >> Архив погоды >> Финляндия >> Лаитала


ПОГОДА в Лаитале

  • Прогноз погоды в Лаитале
  • Монитор погоды в Лаитале

АРХИВ ПОГОДЫ в Лаитале

Время (UTC), дата Ветер
(напр.,м/с)
 
Видим.   Явления Облачность Т
(С)
Тd
(С)
f
(%)
Тe
(С)
Тes
(С)
Комфортность P
(гПа)
Po
(гПа)
Тmin
(С)
Tmax
(С)
R
(мм)
R24
(мм)
S
(см)
01 12.08 ЮВ 5 н/о н/о +13.9 +13.5 97 +12 +12 1006.8 996.8
02 12.08 ЮВ 4 н/о н/о +14.0 +13.8 99 +12 +12 1006.6 996.6
03 12.08 ЮВ 4-6
{7}
н/о н/о +14.3 +14.1 99 +13 +13 1006.4 996.3
04 12.08 ЮВ 4-5
{6}
н/о н/о +14.6 +14.4 99 +13 +13 1006.4 996.3
05 12.08 ЮВ 4-6
{6}
н/о н/о +14.9 +14.6 98 +14 +14 1006.1 996.1
06 12.08 ЮВ 4-5
{6}
н/о н/о +15.7 +15.3 97 +15 +15 1006.0 995.9 +13.9 +18.2 0.8
07 12.08 ЮВ 4 н/о н/о +16.5 +15.8 96 +16 +16 1005.8 995.8
08 12.08 Ю 4 н/о н/о +17.5 +16.4 93 +17 +17 1005.9 996.0
09 12.08 Ю 5-8
{8}
н/о н/о +18.0 +15.8 87 +18 +18 1005.7 995.8
10 12.08 Ю 5-8
{8}
н/о н/о +19.0 +16.4 85 +20 +20 1005.4 995.5
11 12.08 Ю 4-6
{10}
н/о н/о +17.5 +16.0 91 +17 +17 1005.7 995.8 1
12 12.08 ЮЗ 5-8
{9}
н/о н/о +20.0 +14.9 72 +22 +22 комфорт 1005.5 995.6
13 12.08 Ю 4 н/о н/о +19.4 +13.5 69 +21 +21 комфорт 1005.7 995.8
14 12.08 Ю 4 н/о н/о +19.6 +13.9 70 +21 +21 комфорт 1005.3 995.4
15 12.08 Ю 2-3
{9}
н/о н/о +17.1 +14.6 85 +17 +17 1005.4 995.4 0.1
16 12.08 ЮВ 4 н/о н/о +18.7 +14.6 77 +19 +19 1004.9 995.0
17 12.08 ЮВ 6-8
{8}
н/о н/о +17.4 +15.3 87 +17 +17 1004.9 995.0
18 12.08 Ю 4-7
{8}
н/о н/о +16.9 +13.7 81 +16 +16 1005.2 995.3 +15.7 +20.0 1
19 12.08 Ю 3-4
{6}
н/о н/о +16.1 +13.9 87 +16 +16 1005.5 995.5
20 12.08 ЮВ 3-4
{5}
н/о н/о +14.0 +13.5 97 +13 +13 1005.4 995.3
21 12.08 ЮВ 3-4
{4}
н/о н/о +14.3 +13.8 97 +13 +13 1005.3 995.3
22 12.08 ЮВ 3 н/о н/о +14.2 +13.3 94 +13 +13 1005.4 995.3
23 12.08 ЮВ 3 н/о н/о +13.4 +13.1 98 +12 +12 1005.4 995.3
00 13.08 ЮЗ 1-3
{5}
н/о н/о +13.8 +13.5 98 +14 +14 1005.5 995.4 0.3
01 13.08 ЮВ 2-3
{4}
н/о н/о +13.7 +13.7 100 +13 +13 1005.2 995.2 6
02 13.08 ЮВ 3 н/о н/о +13.3 +13.2 99 +12 +12 1004.8 994.8
03 13.08 ЮВ 3-4
{5}
н/о н/о +12.8 +12.8 100 +11 +11 1004.6 994.5
04 13.08 ЮВ 3 н/о н/о +13.3 +13.2 99 +12 +12 1004.5 994.4
05 13.08 Ю 4-5
{6}
н/о н/о +14.2 +13.8 97 +13 +13 1004.2 994.1
06 13.08 Ю 4-5
{7}
н/о н/о +14.6 +14.0 96 +13 +13 1004.3 994.3 +12.7 +16.9 7
07 13.08 Ю 5 н/о н/о +15.2 +14.2 94 +14 +14 1004.3 994.3
08 13.08 Ю 4-7
{7}
н/о н/о +15.7 +14.1 90 +15 +15 1004.3 994.3
09 13.08 Ю 4-6
{8}
н/о н/о +16.6 +14.3 86 +16 +16 1004.3 994.3
10 13.08 Ю 4 н/о н/о +17.7 +14.1 79 +17 +17 1003.8 993.9
11 13.08 ЮЗ 4 н/о н/о +18.7 +13.8 73 +19 +19 1003.3 993.4
12 13.08 Ю 4-6
{7}
н/о н/о +18.8 +13.4 71 +20 +20 1003.0 993.1
13 13.08 Ю 5 н/о н/о +18.9 +13.0 69 +20 +20 1003.0 993.2
14 13.08 ЮЗ 2 н/о н/о +15.5 +13.6 88 +15 +15 1003.5 993.5
15 13.08 штиль 0
{2}
н/о н/о +15.9 +13.6 86 +16 +16 1003.5 993.5
16 13.08 В 1 н/о н/о +16.7 +14.1 85 +18 +18 1003.3 993.3
17 13.08 Ю 2 н/о н/о +16.5 +13.8 84 +17 +17 1003.3 993.4
18 13.08 ЮВ 1-2
{2}
н/о н/о +15.1 +14.3 95 +16 +16 1003.3 993.3 +14.6 +20.0 0.4
19 13.08 ЮВ 1 н/о н/о +14.4 +14.0 97 +15 +15 1003.2 993.2
20 13.08 Ю 2 н/о н/о +13.6 +13.4 99 +13 +13 1003.2 993.1
21 13.08 Ю 2-2
{4}
н/о н/о +13.0 +13.0 100 +12 +12 1003.2 993.2
22 13.08 Ю 2 н/о н/о +12.6 +12.6 100 +12 +12 1003.2 993.1
23 13.08 ЮЗ 2 н/о н/о +12.6 +12.5 99 +12 +12 1003.2 993.1
00 14.08 Ю 2-3
{3}
н/о н/о +12.0 +11.5 97 +11 +11 1003.2 993.1
01 14.08 Ю 2 н/о н/о +11.1 +10.7 97 +10 +10 1003.2 993.1
02 14.08 ЮВ 2-3
{3}
н/о н/о +10.4 +10.4 100 +9 +9 1003.1 993.0
03 14.08 Ю 3-3
{4}
н/о н/о +11.5 +11.3 99 +10 +10 1002.9 992.7
04 14.08 ЮВ 3 н/о н/о +12.1 +11.7 97 +10 +10 1002.6 992.5
05 14.08 Ю 4 н/о н/о +12.9 +12.0 94 +11 +11 1002.6 992.5
06 14.08 Ю 4-6
{6}
н/о н/о +14.5 +12.6 88 +13 +13 1002.5 992.5 +10.4 +15.1
07 14.08 Ю 3-6
{6}
н/о н/о +16.2 +13.4 83 +16 +16 1002.3 992.3
08 14.08 Ю 4-5
{6}
н/о н/о +15.8 +13.1 84 +15 +15 1002.2 992.3
09 14.08 Ю 4-7
{7}
н/о н/о +18.6 +12.1 66 +19 +19 1001.9 992.0
10 14.08 Ю 5 н/о н/о +18.6 +10.9 61 +19 +19 1001.8 991.9
11 14.08 Ю 6 н/о н/о +19.9 +10.9 56 +21 +21 комфорт 1001.6 991.8
12 14.08 ЮЗ 5-8
{8}
н/о н/о +19.4 +9.4 52 +20 +20 1001.5 991.7
13 14.08 ЮЗ 4 н/о н/о +20.3 +10.1 52 +22 +22 комфорт 1001.4 991.6
14 14.08 СЗ 3-5
{7}
н/о н/о +18.9 +12.5 66 +20 +20 1001.4 991.5
15 14.08 СЗ 2-4
{6}
н/о н/о +16.9 +13.7 81 +17 +17 1001.1 991.1
16 14.08 ЮЗ 4 н/о н/о +16.6 +12.2 75 +16 +16 1001.6 991.7
17 14.08 ЮЗ 4 н/о н/о +13.9 +12.4 91 +12 +12 1002.0 992.0
18 14.08 Ю 2-2
{4}
н/о н/о +13.0 +12.7 98 +12 +12 1003.0 992.9 +12.9 +20.9 2
19 14.08 ЮЗ 2 н/о н/о +12.5 +12.3 99 +11 +11 1002.9 992.8
20 14.08 ЮЗ 2 н/о н/о +12.3 +12.2 99 +11 +11 1002.5 992.4
21 14.08 ЮЗ 2-3
{3}
н/о н/о +11.2 +11.1 99 +10 +10 1002.6 992.5
22 14.08 Ю 2 н/о н/о +11.1 +10.8 98 +10 +10 1002.6 992.5
23 14.08 Ю 1 н/о н/о +9.8 +9.7 99 +9 +9 1002.6 992.4
00 15.08 Ю 3-4
{4}
н/о н/о +10.8 +10.6 99 +9 +9 1002.3 992.2
01 15.08 Ю 2 н/о н/о +11.0 +10.6 97 +10 +10 1002.4 992.2
02 15.08 Ю 2-3
{4}
н/о н/о +10.8 +10.5 98 +9 +9 1002.4 992.2
03 15.08 Ю 3-4
{4}
н/о н/о +10.4 +10.2 99 +8 +8 1002.3 992.2
04 15.08 Ю 3-4
{5}
н/о н/о +10.7 +10.5 99 +8 +8 1002.2 992.1
05 15.08 ЮЗ 4 н/о н/о +11.6 +11.1 97 +9 +9 1002.1 992.0
06 15.08 Ю 4-6
{7}
н/о н/о +12.5 +11.5 94 +10 +10 1001.9 991.9 +9.8 +13.2 0.2
07 15.08 ЮЗ 4 н/о н/о +13.3 +11.7 90 +12 +12 1001.9 991.8
08 15.08 З 4 н/о н/о +13.9 +11.6 86 +12 +12 1001.8 991.8
09 15.08 ЮЗ 2-4
{6}
н/о н/о +14.9 +12.3 84 +15 +15 1001.8 991.9 0.2
10 15.08 ЮЗ 3 н/о н/о +14.5 +12.5 88 +14 +14 1002.1 992.1
11 15.08 ЮЗ 4-5
{8}
н/о н/о +14.8 +12.1 84 +14 +14 1002.2 992.3
12 15.08 З 4-6
{7}
н/о н/о +14.9 +11.8 82 +14 +14 1002.4 992.4 0.4
13 15.08 З 5 н/о н/о +15.9 +11.7 76 +15 +15 1002.6 992.7
14 15.08 З 5-6
{8}
н/о н/о +15.7 +12.3 80 +15 +15 1003.0 993.0
15 15.08 З 4-7
{7}
н/о н/о +15.5 +11.9 79 +15 +15 1003.6 993.7
16 15.08 З 5 н/о н/о +15.5 +11.7 78 +14 +14 1003.9 993.9
17 15.08 З 5 н/о н/о +15.1 +11.2 78 +14 +14 1004.3 994.3
18 15.08 ЮЗ 3-4
{8}
н/о н/о +13.3 +11.3 88 +12 +12 1004.9 994.8 +12.4 +16.5 0.7
19 15.08 ЮЗ 3-4
{4}
н/о н/о +12.5 +11.4 93 +11 +11 1005.3 995.2
20 15.08 ЮЗ 3-4
{5}
н/о н/о +12.1 +11.2 94 +10 +10 1005.7 995.5
21 15.08 ЮЗ 4-5
{5}
н/о н/о +11.4 +10.7 95 +9 +9 1006.1 995.9
22 15.08 ЮЗ 3 н/о н/о +10.9 +10.3 96 +9 +9 1006.3 996.1
23 15.08 ЮЗ 3 н/о н/о +11.6 +10.8 95 +10 +10 1006.5 996.4
00 16.08 ЮЗ 3-5
{6}
н/о н/о +11.8 +10.9 94 +10 +10 1007.1 996.9
01 16.08 ЮЗ 4 н/о н/о +12.0 +11.1 94 +10 +10 1007.3 997.2
02 16.08 ЮЗ 3-4
{5}
н/о н/о +11.9 +11.0 94 +10 +10 1007.6 997.4
03 16.08 ЮЗ 3-4
{5}
н/о н/о +12.3 +11.0 92 +11 +11 1007.9 997.7
04 16.08 ЮЗ 3 н/о н/о +12.5 +11.1 91 +11 +11 1008.1 998.0
05 16.08 ЮЗ 4-5
{6}
н/о н/о +12.7 +11.2 91 +11 +11 1008.6 998.5
06 16.08 ЮЗ 4-6
{6}
н/о н/о +13.5 +11.7 89 +12 +12 1009.2 999.0 +10.6 +13.5
07 16.08 ЮЗ 4 н/о н/о +15.7 +11.8 78 +15 +15 1009.3 999.2
08 16.08 З 4 н/о н/о +16.9 +10.1 64 +16 +16 1009.4 999.4
09 16.08 З 7-9
{10}
н/о н/о +18.0 +8.4 53 +17 +17 1009.9 999.9
10 16.08 З 5-8
{10}
н/о н/о +18.3 +7.0 48 +18 +18 1010.2 1000.3
11 16.08 З 7 н/о н/о +19.4 +6.8 44 +20 +20 1010.4 1000.5
12 16.08 З 4-8
{9}
н/о н/о +19.8 +7.3 44 +21 +21 комфорт 1010.5 1000.5
13 16.08 З 4 н/о н/о +19.5 +7.8 47 +20 +20 1010.6 1000.7
14 16.08 ЮЗ 5 н/о н/о +20.8 +6.4 39 +22 +22 комфорт 1010.5 1000.7
15 16.08 ЮЗ 4-6
{8}
н/о н/о +20.9 +7.0 41 +22 +22 комфорт 1010.5 1000.6
16 16.08 ЮЗ 3 н/о н/о +19.6 +8.7 49 +21 +21 комфорт 1010.6 1000.7
17 16.08 Ю 2-3
{4}
н/о н/о +18.6 +9.2 54 +20 +20 1010.7 1000.8
18 16.08 СЗ 2-3
{4}
н/о н/о +16.9 +9.5 62 +17 +17 1011.3 1001.3 +13.5 +21.3
19 16.08 Ю 1 н/о н/о +13.3 +9.8 79 +14 +14 1011.6 1001.4
20 16.08 Ю 1-2
{2}
н/о н/о +10.7 +9.0 89 +10 +10 1011.9 1001.7
21 16.08 Ю 2-3
{3}
н/о н/о +11.2 +9.6 90 +10 +10 1012.2 1002.0
22 16.08 Ю 2 н/о н/о +11.8 +10.2 90 +11 +11 1012.3 1002.1
23 16.08 ЮВ 2 н/о н/о +12.5 +11.3 92 +12 +12 1012.0 1001.8
00 17.08 ЮВ 3-4
{4}
н/о н/о +12.5 +11.2 92 +11 +11 1011.7 1001.6
01 17.08 ЮВ 3 н/о н/о +12.5 +11.5 94 +11 +11 1011.8 1001.6
02 17.08 Ю 3-4
{4}
н/о н/о +13.4 +11.9 91 +12 +12 1011.5 1001.3
03 17.08 Ю 4-5
{5}
н/о н/о +13.9 +11.7 87 +12 +12 1011.2 1001.0
04 17.08 Ю 5 н/о н/о +14.8 +11.5 81 +13 +13 1010.8 1000.7
05 17.08 Ю 5 н/о н/о +15.1 +11.9 81 +14 +14 1011.2 1001.1
06 17.08 Ю 5-9
{9}
н/о н/о +15.7 +12.6 82 +15 +15 1010.9 1000.9 +10.1 +17.0 0.3
07 17.08 Ю 5-7
{9}
н/о н/о +16.4 +13.1 81 +15 +15 1010.9 1000.9
08 17.08 Ю 6 н/о н/о +16.6 +13.6 82 +16 +16 1010.9 1000.9
09 17.08 Ю 5-7
{9}
н/о н/о +18.2 +14.5 79 +18 +18 1010.6 1000.7
10 17.08 Ю 5 н/о н/о +19.0 +14.3 74 +20 +20 1010.6 1000.7
11 17.08 Ю 6 н/о н/о +19.8 +13.5 67 +21 +21 комфорт 1010.9 1000.9
12 17.08 Ю 6-11
{11}
н/о н/о +20.1 +13.1 64 +22 +22 комфорт 1010.5 1000.6
13 17.08 Ю 6 н/о н/о +20.8 +12.7 60 +23 +23 комфорт 1010.0 1000.1
14 17.08 Ю 4 н/о н/о +21.1 +12.5 58 +23 +23 комфорт 1009.7 999.9
15 17.08 Ю 6-9
{15}
н/о н/о +16.6 +15.1 91 +15 +15 1010.3 1000.3 1
16 17.08 Ю 3 н/о н/о +17.1 +15.9 93 +17 +17 1009.8 999.8
17 17.08 Ю 5-8
{8}
н/о н/о +16.9 +15.1 89 +16 +16 1010.1 1000.1
18 17.08 Ю 4-5
{8}
н/о н/о +16.5 +14.5 88 +16 +16 1010.5 1000.4 +15.7 +21.7 2
19 17.08 Ю 3 н/о н/о +16.1 +14.5 90 +16 +16 1010.6 1000.5
20 17.08 Ю 3 н/о н/о +14.6 +14.0 96 +14 +14 1010.6 1000.5
21 17.08 Ю 3-6
{6}
н/о н/о +15.1 +14.2 94 +14 +14 1011.0 1000.9 1
22 17.08 ЮВ 2 н/о н/о +14.3 +13.9 97 +14 +14 1010.9 1000.8
23 17.08 ЮВ 4-4
{5}
н/о н/о +13.5 +13.1 97 +12 +12 1011.1 1000.9
00 18.08 ЮВ 4-5
{5}
н/о н/о +12.8 +12.4 97 +11 +11 1011.2 1001.0
01 18.08 Ю 4 н/о н/о +13.7 +12.6 93 +12 +12 1011.1 1001.0
02 18.08 ЮВ 4 н/о н/о +11.5 +11.1 97 +9 +9 1010.9 1000.7
03 18.08 ЮВ 4-5
{5}
н/о н/о +11.9 +11.5 97 +10 +10 1010.8 1000.6
04 18.08 ЮВ 4 н/о н/о +12.6 +12.0 96 +11 +11 1010.6 1000.4
05 18.08 ЮВ 4 н/о н/о +13.9 +12.9 94 +12 +12 1010.2 1000.1
06 18.08 ЮВ 4-5
{6}
н/о н/о +15.8 +14.1 90 +15 +15 1010.0 999.9 +11.0 +16.6 2
07 18.08 ЮВ 5 н/о н/о +17.0 +14.5 85 +16 +16 1009.8 999.8
08 18.08 Ю 4-6
{7}
н/о н/о +16.6 +14.7 89 +16 +16 1009.7 999.7
09 18.08 Ю 6-8
{8}
н/о н/о +18.8 +14.8 78 +19 +19 1009.6 999.7
10 18.08 Ю 6 н/о н/о +19.2 +14.4 74 +20 +20 1009.7 999.7
11 18.08 Ю 3 н/о н/о +19.1 +14.5 75 +21 +21 комфорт 1009.4 999.5
12 18.08 Ю 9-14
{14}
н/о н/о +19.5 +12.0 62 +20 +20 1009.6 999.7
13 18.08 Ю 6-9
{10}
н/о н/о +18.8 +12.3 66 +19 +19 1009.8 999.8
14 18.08 Ю 5-8
{10}
н/о н/о +18.0 +14.4 79 +18 +18 1009.6 999.6
15 18.08 ЮВ 4-5
{8}
н/о н/о +17.2 +15.8 91 +17 +17 1009.4 999.5 0.3
16 18.08 Ю 7 н/о н/о +16.7 +14.9 89 +15 +15 1009.3 999.3
17 18.08 Ю 4 н/о н/о +16.6 +15.2 91 +16 +16 1009.2 999.2
18 18.08 Ю 4-6
{8}
н/о н/о +16.2 +13.6 85 +15 +15 1009.3 999.3 +15.8 +19.6 1
19 18.08 ЮВ 4-6
{6}
н/о н/о +15.6 +13.4 87 +15 +15 1009.1 999.1
20 18.08 ЮВ 5 н/о н/о +14.9 +13.3 90 +13 +13 1008.9 998.8
21 18.08 ЮВ 3-5
{5}
н/о н/о +14.5 +13.0 91 +14 +14 1008.4 998.3
22 18.08 ЮВ 5 н/о н/о +15.0 +12.4 84 +14 +14 1007.9 997.9
23 18.08 ЮВ 5-7
{9}
н/о н/о +14.2 +11.9 86 +12 +12 1007.6 997.6
00 19.08 ЮВ 5-7
{7}
н/о н/о +14.1 +12.1 88 +12 +12 1006.9 996.8
01 19.08 ЮВ 5-6
{7}
н/о н/о +14.1 +12.1 88 +12 +12 1006.2 996.2 0.1

 

Местоположение метеостанции Лаитала (Финляндия): широта 63.82 долгота 24.16 высота над уровнем моря 83 м.

В архиве по умолчанию представлена погода в Лаитале за последнюю неделю. Архивные данные за месяц целиком и за предыдущие месяцы, начиная с января 2011 года, Вы можете получить, выбрав интересующий диапазон дат из раскрывающегося списка и нажав кнопку "Ввод!".


*Определитесь, кто Вы:
робот инопланетянин человек

Внимание! Время в таблицах - всемирное. Для получения местного времени необходимо прибавить поправку, которая равна 1 ч.

Смотрите также архив погоды в соседних городах и на ближайших метеорологических станциях:

Погода в Юливиеске (Финляндия) (37 км)
Погода в Пуроле (Финляндия) (43 км)
Погода в Кокколе (Финляндия) (51 км)
Погода в Круунупюу (Финляндия) (51 км)
Погода на Танкаре (Финляндия) (66 км)
Погода на Острове Улкокалла (Финляндия) (66 км)
Погода в Мустиккамаки (Финляндия) (71 км)
Погода в Пюхяярви (Финляндия) (77 км)
Погода на Острове Каллан (Финляндия) (81 км)
Погода в Алаярви Моксы (Финляндия) (81 км)

Пояснения к столбцам:

Ветер - указаны скорость ветра в м/с - средняя за 10 мин, порывы в срок и между сроками (в фигурных скобках) и направление, откуда дует ветер: С - северный, СВ - северо-восточный, В - восточный, ЮВ - юго-восточный, Ю - южный, ЮЗ - юго-западный, З - западный, СЗ - северо-западный.
Видимость - горизонтальная дальность видимости в метрах или километрах. При видимости от 1 до 10 км при отсутствии осадков обычно наблюдается дымка, при ухудшении видимости до 1 км и менее - туман. В сухую погоду видимость может ухудшаться дымом, пылью или мглою.
Явления - указаны атмосферные явления, наблюдавшиеся в срок или в последний час перед сроком; фигурными скобками обозначены явления, наблюдавшиеся между сроками (за 1-3 часа до срока); квадратными скобками обозначены град или гололедные отложения с указанием их диаметра в мм.
Облачность - указаны через наклонную черту общая и нижняя облачность в баллах и высота нижней границы облаков в метрах; квадратными скобками обозначены формы облаков: Ci - перистые, Cs - перисто-слоистые, Cc - перисто-кучевые, Ac - высококучевые, As - высокослоистые, Sc - слоисто-кучевые, Ns - слоисто-дождевые, Cu - кучевые, Cb - кучево-дождевые. Подробнее классификацию облаков см. в Атласе облаков (PDF).
T - Температура воздуха - температура, измеренная на высоте 2 м над землей.
Td - Температура точки росы - температура, при понижении до которой содержащийся в воздухе водяной пар достигнет насыщения.
f - Относительная влажность воздуха - влажноcть воздуха, измеренная на высоте 2 м над землей.
Te - Эффективная температура - температура, которую ощущает одетый по сезону человек в тени. Характеристика душности погоды. При расчете учитывается влияние влажности воздуха и скорости ветра на теплоощущения человека.
Tes - Эффективная температура на солнце - температура, которую ощущает человек, с поправкой на солнечный нагрев. Характеристика знойности погоды. Зависит от высоты солнца над горизонтом, облачности и скорости ветра. Ночью, в пасмурную погоду, а также при ветре 12 м/с и более поправка равна нулю.
P - Атмосферное давление - приведенное к уровню моря атмосферное давление.
Po - Атмосферное давление - измеренное на уровне метеостанции атмосферное давление.
Tmin - Минимальная температура - минимум температуры воздуха на высоте 2 м над землей.
Tmax - Максимальная температура - максимум температуры воздуха на высоте 2 м над землей.
R - Количество осадков - Количество выпавших осадков за период времени, мм. При наведении курсора мыши на число - период времени, за который выпало указанное количество осадков.
R24 - Количество осадков - Количество выпавших осадков за 24 часа, мм.
S - Снежный покров - Высота снежного покрова, см. При наведении курсора мыши на число - состояние снежного покрова и степень покрытия местности в баллах.